Temp
6 6 5 5 5 5 6 7 8 9 9 10 10 11 10 10 10 9 8 8 8 7 5 6 5 6 6 7 7 8 7 7 7 7 7 7 7 6 6 6 6 6 6 5 5 5 5 5 5
6 6 6 6 6 6 7 9 9 10 9 9 10 9 9 10 10 8 8 8 8 7 6 5 6 5 6 7 7 7 7 7 7 7 7 6 6 6 6 6 5 5 5 5 5 4 4 4 4
6 5 6 5 6 7 8 10 10 10 9 9 9 8 8 7 7 7 8 7 7 6 6 6 6 5 6 5 6 6 6 6 6 7 6 6 5 5 5 5 5 5 4 4 4 4 4 4 4
5 6 6 7 8 9 8 9 10 9 9 9 8 7 6 7 6 7 6 7 6 5 5 5 6 5 5 5 5 5 6 6 6 6 6 5 5 5 5 5 4 4 4 4 4 4 4 3 3
6 6 6 6 7 8 9 9 10 9 8 8 8 7 7 7 6 7 7 7 6 6 6 6 5 4 5 5 5 5 5 6 5 5 5 5 5 4 4 4 4 4 4 4 4 3 3 3 3
5 5 6 6 8 9 9 9 9 8 7 7 7 7 5 5 5 5 6 5 6 5 5 5 4 3 4 5 4 4 5 5 5 5 4 4 4 4 4 4 3 3 3 3 3 3 3 3 2
6 6 6 7 8 9 9 9 8 8 8 6 6 6 6 5 5 5 5 5 5 5 6 5 4 4 5 4 4 3 4 5 5 4 4 4 4 3 3 3 3 3 3 3 3 3 2 2 2
5 6 7 8 8 9 9 8 7 7 6 5 6 6 5 5 5 5 5 5 5 5 5 5 4 4 4 4 4 3 4 4 4 4 3 3 3 3 3 3 2 2 3 3 3 2 2 2 2
6 6 7 8 9 8 8 7 7 6 4 5 5 5 5 6 5 5 5 6 5 6 5 4 4 3 1 3 3 1 2 3 3 3 2 3 3 3 2 2 2 2 2 2 2 2 2 2 2
6 7 8 8 8 8 8 7 6 6 6 4 4 5 5 5 5 5 5 5 5 5 5 4 4 5 3 3 2 2 3 3 2 2 2 2 2 2 2 2 2 2 2 2 2 2 2 2 2
7 7 8 8 8 8 8 7 6 6 5 4 5 5 5 5 5 5 5 5 5 5 4 4 4 4 3 3 2 1 2 1 1 1 1 2 1 1 1 1 2 2 2 2 2 1 1 2 2
7 8 8 8 8 8 7 7 6 4 4 5 5 5 6 6 6 4 4 5 5 5 6 4 3 4 3 3 3 2 2 -1 -0 1 1 1 1 1 2 2 2 3 2 1 1 1 1 2 2
8 8 8 8 8 8 7 7 7 6 4 4 5 5 5 5 4 3 2 4 4 5 4 4 3 3 3 3 3 2 0 -1 -0 0 0 -1 0 1 1 1 2 2 1 1 0 1 2 1 1
7 7 7 7 8 8 7 7 7 6 6 5 4 4 4 1 2 2 3 4 4 4 4 3 3 3 2 2 3 2 0 1 -2 -2 -2 -2 -2 -1 1 1 2 2 1 1 1 1 1 1 1
7 7 7 8 8 7 7 7 7 5 5 6 2 4 4 1 2 2 2 3 3 2 2 2 3 3 3 2 2 2 1 0 -2 -3 -1 -2 -2 -1 0 1 1 1 1 1 0 1 1 1 1
7 7 7 8 8 8 7 6 6 6 5 5 3 4 3 3 3 4 5 5 5 1 2 2 2 2 2 2 1 2 1 0 -0 -1 -2 -2 -0 0 0 1 1 1 1 1 1 1 1 1 1
7 7 8 8 7 8 7 7 7 6 5 6 4 3 4 5 5 5 5 4 4 4 2 1 1 1 2 2 1 0 0 -0 -0 -0 -2 -0 0 1 1 1 0 1 1 1 1 1 1 1 1
7 7 8 8 8 7 8 7 7 6 5 6 4 4 5 5 4 4 4 4 4 4 4 3 -0 0 1 -0 -1 -1 -1 -0 -1 -1 -1 -0 0 1 1 0 0 1 1 1 1 1 1 1 1
7 8 8 9 8 7 8 8 8 7 6 6 5 6 5 6 5 4 4 4 4 4 4 4 4 2 1 1 1 -1 0 0 -1 -1 0 1 1 1 1 1 1 1 1 1 1 1 1 1 1
7 8 8 9 7 8 8 8 7 7 7 6 6 6 5 7 5 5 5 5 4 4 4 4 4 4 3 2 1 1 1 1 1 2 1 1 1 1 1 1 2 1 1 1 1 1 1 0 0
8 8 8 8 8 8 8 9 7 7 6 6 6 5 6 6 6 5 5 5 5 5 4 4 4 4 3 3 2 2 1 1 1 2 1 2 1 2 1 1 2 1 1 1 1 0 -0 -0 -0
8 8 8 8 8 8 9 8 7 7 7 6 7 7 6 7 6 6 5 5 5 5 5 5 4 4 3 4 3 3 3 3 3 2 2 1 1 2 2 1 1 1 0 1 1 0 -0 -0 -0
7 8 8 8 8 8 8 8 9 8 7 7 7 7 7 7 7 7 6 6 5 5 5 5 5 4 4 4 4 3 3 3 3 2 2 2 2 2 2 1 1 1 1 1 0 -0 -1 0 -1
8 8 8 8 8 5 8 8 8 8 7 7 7 8 7 8 7 7 6 6 6 5 5 5 5 4 4 4 4 4 4 4 4 3 3 2 2 2 1 1 1 1 1 0 0 0 -0 0 -0
8 8 6 5 4 3 7 7 8 9 9 8 8 8 8 7 8 7 7 7 6 6 5 5 5 5 4 4 4 4 4 4 3 3 3 2 1 1 0 1 1 1 1 1 1 0 -1 -1 -1
8 8 6 3 1 4 6 6 9 9 9 9 9 9 8 8 7 7 8 7 7 6 6 5 5 5 5 5 5 5 4 4 3 3 2 2 1 1 1 1 1 1 1 1 1 1 -1 -0 -1
8 8 8 6 3 2 4 7 8 9 9 9 9 8 8 8 8 7 7 7 7 6 6 6 5 5 5 6 5 5 4 4 4 3 2 3 2 2 2 1 1 1 2 2 1 1 -0 -1 -1
7 7 7 6 2 1 5 5 7 9 8 9 8 8 8 8 8 7 7 6 6 5 5 5 5 6 6 5 5 5 5 4 4 3 3 2 2 2 2 2 2 2 2 2 1 0 -0 -1 -1
7 7 7 7 6 3 3 7 8 8 8 8 8 8 8 8 7 7 7 6 6 5 6 6 5 4 3 3 5 5 4 4 3 3 2 2 2 2 2 2 2 2 2 1 1 -0 -1 -1 -2
7 7 7 7 7 7 7 6 8 8 7 8 8 8 8 7 7 8 7 6 5 6 6 5 5 5 5 4 5 4 4 3 2 2 2 2 2 2 2 2 2 1 1 1 0 -0 -1 -2 -1
Height
3133 3132 3130 3130 3135 3129 3125 3123 3121 3118 3119 3121 3119 3118 3119 3118 3119 3124 3125 3127 3129 3123 3103 3126 3138 3140 3143 3143 3145 3148 3151 3155 3156 3160 3161 3162 3163 3165 3167 3168 3169 3170 3172 3172 3173 3174 3175 3175 3175
3132 3131 3131 3129 3130 3128 3123 3119 3120 3121 3120 3118 3117 3115 3117 3117 3121 3119 3122 3125 3123 3122 3123 3115 3128 3139 3141 3142 3145 3148 3151 3154 3157 3158 3161 3163 3164 3166 3168 3169 3170 3172 3173 3174 3174 3175 3175 3175 3175
3131 3130 3130 3128 3127 3123 3121 3122 3122 3120 3119 3119 3114 3115 3115 3115 3119 3120 3121 3122 3120 3122 3116 3119 3131 3135 3138 3141 3141 3146 3149 3152 3155 3157 3160 3163 3165 3166 3168 3170 3171 3172 3174 3174 3174 3176 3176 3176 3176
3131 3131 3130 3126 3123 3121 3124 3123 3120 3117 3117 3115 3116 3116 3116 3113 3116 3117 3120 3120 3125 3122 3124 3126 3127 3132 3134 3137 3139 3143 3146 3150 3154 3156 3159 3163 3165 3168 3168 3172 3173 3173 3175 3175 3176 3176 3176 3176 3176
3129 3128 3127 3124 3124 3123 3122 3120 3118 3115 3115 3116 3117 3115 3116 3118 3117 3120 3117 3119 3118 3121 3125 3125 3117 3118 3129 3136 3137 3141 3145 3149 3153 3156 3159 3162 3166 3168 3170 3172 3173 3174 3175 3176 3176 3176 3177 3177 3177
3128 3129 3126 3122 3124 3123 3120 3120 3117 3113 3114 3114 3116 3117 3114 3112 3111 3115 3116 3118 3115 3116 3119 3120 3111 3094 3124 3127 3129 3138 3143 3148 3152 3156 3158 3161 3165 3169 3170 3172 3173 3175 3175 3176 3177 3177 3178 3179 3179
3127 3129 3125 3122 3121 3121 3117 3117 3114 3112 3111 3114 3113 3112 3117 3116 3113 3115 3115 3116 3115 3114 3117 3117 3119 3115 3123 3124 3128 3136 3143 3148 3151 3154 3159 3162 3164 3167 3170 3172 3173 3175 3176 3177 3178 3179 3179 3180 3180
3126 3128 3124 3120 3120 3119 3117 3116 3113 3114 3115 3118 3115 3110 3111 3114 3112 3114 3113 3113 3115 3112 3114 3117 3121 3120 3119 3126 3116 3133 3142 3148 3150 3154 3158 3161 3164 3167 3169 3172 3173 3175 3176 3177 3178 3179 3179 3180 3181
3128 3128 3124 3121 3122 3119 3115 3115 3115 3116 3116 3116 3115 3115 3113 3109 3108 3109 3111 3111 3112 3113 3111 3114 3120 3117 3106 3108 3119 3135 3144 3147 3150 3153 3157 3160 3162 3165 3168 3170 3172 3174 3176 3177 3178 3178 3178 3179 3181
3125 3126 3120 3123 3121 3118 3115 3114 3113 3117 3116 3112 3115 3112 3110 3108 3105 3106 3107 3106 3109 3110 3111 3111 3112 3114 3116 3118 3124 3133 3137 3138 3147 3151 3155 3159 3163 3165 3166 3169 3171 3174 3174 3176 3177 3177 3178 3180 3181
3123 3124 3121 3122 3120 3118 3118 3114 3112 3111 3110 3112 3113 3110 3109 3105 3102 3103 3105 3103 3104 3107 3109 3110 3112 3111 3115 3119 3125 3131 3134 3137 3141 3148 3154 3160 3162 3162 3164 3166 3169 3172 3173 3173 3175 3175 3177 3180 3181
3121 3122 3120 3119 3119 3117 3114 3112 3112 3113 3113 3113 3109 3106 3104 3103 3097 3096 3099 3101 3102 3104 3105 3108 3108 3110 3115 3119 3124 3128 3129 3135 3140 3145 3154 3159 3160 3161 3165 3169 3171 3174 3172 3173 3174 3175 3177 3179 3178
3119 3119 3119 3116 3117 3118 3114 3111 3112 3110 3113 3110 3108 3102 3097 3095 3093 3092 3095 3095 3098 3100 3102 3103 3105 3109 3113 3117 3122 3124 3125 3130 3139 3145 3150 3157 3159 3163 3165 3168 3170 3173 3172 3174 3175 3176 3177 3177 3177
3115 3115 3115 3114 3114 3115 3115 3111 3111 3109 3108 3107 3103 3099 3093 3088 3087 3090 3093 3091 3093 3094 3096 3099 3101 3103 3108 3111 3116 3118 3120 3126 3138 3143 3146 3152 3156 3162 3165 3167 3170 3171 3172 3173 3173 3174 3175 3176 3177
3112 3112 3112 3110 3111 3111 3110 3112 3110 3107 3104 3104 3100 3101 3093 3089 3090 3088 3088 3087 3089 3090 3093 3093 3096 3098 3100 3104 3110 3114 3116 3122 3128 3133 3140 3145 3154 3162 3163 3166 3167 3168 3169 3170 3172 3172 3174 3175 3175
3110 3110 3108 3106 3109 3107 3108 3108 3111 3107 3101 3098 3097 3100 3096 3093 3091 3089 3090 3088 3087 3088 3089 3089 3092 3096 3097 3104 3107 3112 3116 3122 3124 3133 3139 3150 3156 3157 3161 3164 3165 3166 3167 3168 3170 3171 3171 3172 3172
3106 3105 3104 3103 3106 3107 3104 3104 3107 3104 3101 3098 3097 3100 3098 3097 3095 3094 3093 3091 3091 3089 3087 3085 3089 3094 3100 3104 3108 3112 3117 3123 3130 3133 3144 3150 3154 3158 3160 3162 3162 3164 3165 3167 3168 3168 3168 3168 3169
3101 3102 3104 3104 3106 3102 3101 3101 3103 3103 3101 3100 3096 3099 3098 3098 3097 3097 3096 3093 3091 3092 3089 3085 3087 3094 3099 3103 3108 3113 3118 3124 3129 3136 3144 3149 3150 3153 3157 3159 3159 3162 3163 3164 3165 3165 3165 3165 3165
3100 3101 3101 3100 3101 3100 3099 3099 3099 3100 3099 3096 3096 3096 3096 3097 3097 3096 3097 3096 3094 3095 3094 3092 3093 3096 3099 3102 3105 3111 3119 3122 3129 3137 3143 3146 3148 3151 3153 3155 3157 3160 3160 3161 3161 3162 3162 3162 3161
3099 3098 3098 3098 3099 3099 3096 3094 3097 3097 3098 3096 3095 3096 3095 3095 3096 3096 3097 3098 3098 3099 3098 3097 3099 3101 3104 3106 3110 3117 3122 3127 3133 3137 3142 3144 3146 3149 3149 3152 3155 3156 3157 3157 3157 3158 3159 3157 3157
3094 3095 3095 3097 3097 3096 3093 3091 3092 3094 3095 3094 3094 3095 3095 3095 3097 3097 3097 3099 3098 3099 3100 3101 3103 3105 3108 3111 3115 3119 3124 3127 3130 3132 3136 3140 3143 3145 3145 3149 3151 3153 3153 3153 3154 3154 3153 3152 3151
3090 3093 3093 3093 3093 3093 3093 3088 3088 3086 3088 3090 3092 3092 3093 3093 3095 3097 3098 3098 3100 3100 3101 3103 3105 3107 3109 3112 3115 3117 3121 3124 3128 3130 3134 3136 3137 3139 3143 3146 3146 3149 3149 3149 3148 3148 3146 3144 3143
3088 3089 3090 3090 3090 3091 3089 3089 3084 3085 3085 3087 3089 3090 3091 3090 3091 3093 3096 3099 3100 3100 3101 3103 3105 3107 3109 3110 3112 3115 3117 3122 3126 3128 3130 3132 3135 3138 3139 3140 3141 3142 3143 3143 3143 3142 3140 3138 3136
3085 3087 3087 3087 3087 3087 3087 3088 3084 3083 3087 3088 3084 3085 3086 3087 3087 3090 3094 3096 3098 3099 3099 3100 3103 3104 3106 3108 3110 3113 3116 3120 3122 3125 3127 3129 3130 3133 3134 3133 3136 3138 3137 3136 3135 3135 3134 3133 3131
3082 3084 3085 3088 3087 3084 3083 3081 3078 3079 3078 3076 3080 3081 3082 3082 3085 3086 3089 3091 3094 3095 3097 3098 3100 3101 3103 3106 3108 3109 3113 3118 3117 3119 3122 3122 3123 3125 3127 3129 3130 3131 3131 3130 3128 3126 3126 3124 3121
3078 3080 3081 3088 3089 3083 3081 3079 3075 3075 3076 3077 3077 3077 3079 3081 3079 3082 3085 3087 3089 3092 3096 3098 3098 3099 3101 3103 3105 3106 3108 3109 3111 3114 3118 3119 3117 3119 3121 3124 3125 3126 3125 3124 3122 3120 3119 3117 3116
3074 3073 3078 3079 3083 3084 3080 3074 3072 3071 3075 3075 3076 3077 3078 3079 3079 3077 3078 3080 3086 3089 3091 3095 3097 3098 3098 3099 3101 3102 3104 3104 3105 3108 3112 3115 3114 3114 3116 3119 3120 3119 3118 3117 3115 3114 3112 3110 3109
3067 3073 3074 3075 3081 3088 3076 3075 3072 3073 3073 3073 3073 3074 3076 3076 3076 3076 3074 3076 3079 3083 3086 3090 3093 3093 3093 3094 3096 3098 3099 3099 3100 3103 3106 3108 3109 3110 3110 3112 3112 3112 3111 3110 3107 3105 3104 3102 3101
3062 3064 3068 3072 3073 3075 3076 3072 3071 3070 3071 3071 3071 3071 3072 3073 3073 3072 3074 3075 3075 3075 3078 3080 3081 3084 3085 3085 3090 3091 3094 3094 3094 3097 3100 3101 3102 3104 3104 3104 3105 3105 3105 3103 3100 3098 3096 3094 3091
3056 3059 3062 3063 3066 3066 3066 3067 3067 3068 3069 3070 3070 3069 3069 3069 3069 3070 3070 3072 3073 3072 3073 3071 3071 3075 3078 3078 3082 3085 3086 3086 3082 3089 3095 3095 3096 3097 3097 3097 3098 3097 3096 3094 3092 3091 3089 3087 3084
Wind_Speed
8 3 2 2 5 8 20 22 21 31 21 20 19 18 12 10 14 10 13 13 17 27 11 30 31 32 30 28 26 23 20 18 16 14 15 16 16 16 16 17 17 18 17 17 17 16 14 12 11
5 1 1 4 9 16 21 20 16 10 10 11 12 13 14 15 20 9 11 12 17 15 17 40 26 31 29 27 26 23 21 18 16 16 15 16 17 16 17 18 19 18 17 16 15 14 12 10 9
1 6 2 4 11 22 19 19 15 10 17 11 7 11 10 12 21 21 23 11 11 10 4 7 25 30 30 29 27 25 22 20 19 17 17 17 17 18 18 18 18 17 16 15 13 10 8 8 8
1 1 5 9 14 20 22 11 9 11 13 15 12 10 11 12 10 12 25 25 18 8 12 16 28 31 32 32 30 27 24 22 19 18 19 19 19 20 19 18 18 17 16 12 10 9 10 11 11
4 3 12 21 26 26 19 9 10 10 13 18 19 14 12 22 29 14 12 18 21 16 14 26 31 32 33 33 31 29 25 22 20 20 21 21 21 21 20 19 18 16 14 13 12 12 12 14 12
1 8 20 30 28 15 12 15 12 13 13 14 16 11 11 11 9 10 11 15 21 17 17 14 23 38 33 33 32 28 25 24 22 22 23 22 23 21 20 19 18 16 14 13 12 12 12 12 11
4 11 24 30 27 16 15 18 14 17 19 19 16 10 15 8 14 8 10 11 12 14 15 12 23 31 28 23 23 30 27 25 24 25 24 24 24 22 21 19 17 15 12 11 11 10 12 12 11
8 18 26 23 30 9 15 14 21 10 17 13 12 9 2 7 9 7 8 9 11 12 15 15 23 29 38 24 31 29 26 26 26 26 26 25 24 22 21 18 15 13 11 10 9 8 9 10 9
3 13 23 19 15 10 15 10 16 8 11 6 1 3 8 10 9 9 9 11 11 10 9 20 12 20 21 26 30 25 24 24 27 29 29 28 27 25 22 18 15 12 10 7 7 6 6 7 7
9 17 19 18 15 14 13 19 16 16 14 12 11 13 9 9 9 12 14 14 14 13 13 20 14 14 10 17 21 36 42 33 34 31 29 30 27 25 22 18 15 12 9 6 5 4 6 5 5
10 19 22 18 16 13 18 17 23 18 17 12 13 10 10 10 10 15 17 19 18 16 17 18 13 16 17 14 23 34 42 40 43 35 33 30 29 26 23 20 14 9 7 5 3 5 6 6 5
19 15 15 13 17 24 17 14 13 10 10 10 12 16 18 15 15 12 16 16 18 16 19 14 11 10 18 20 20 35 32 39 39 37 34 31 30 25 18 11 6 4 3 6 5 2 3 3 5
11 15 15 17 15 15 10 17 16 17 18 15 18 16 21 21 17 10 14 17 14 14 18 16 10 19 25 26 21 37 39 45 40 39 35 30 28 24 18 11 12 9 1 1 1 2 3 2 1
12 15 15 15 12 14 16 13 18 23 26 12 11 20 23 10 2 7 6 7 14 17 19 17 20 21 24 28 25 35 44 42 39 39 41 33 31 23 19 14 19 7 5 5 1 2 2 2 4
12 16 21 16 19 17 18 13 14 11 12 9 13 16 21 2 6 6 12 10 14 14 18 19 16 16 28 34 20 35 44 47 48 52 48 47 34 27 20 23 13 7 6 3 4 5 5 5 6
13 14 20 17 20 17 14 7 20 13 9 12 12 13 10 9 10 8 8 12 6 12 22 14 29 29 36 31 19 26 41 38 46 37 49 38 31 25 24 17 9 7 5 6 7 6 6 7 7
15 23 17 18 12 13 16 12 12 10 10 10 9 11 4 3 11 13 13 17 16 14 7 25 24 24 21 26 26 22 36 27 33 28 34 32 30 22 19 13 11 11 8 9 9 9 9 10 11
18 18 14 10 11 15 17 15 13 8 15 9 10 4 2 4 7 9 12 14 17 19 21 20 23 23 19 17 18 29 37 20 23 35 34 32 24 22 16 14 13 9 11 10 10 13 12 15 16
17 22 25 20 17 11 18 22 12 6 14 10 10 3 1 6 5 7 7 10 13 14 15 23 26 27 25 25 26 26 30 35 40 35 33 25 22 18 17 16 13 10 14 12 13 13 14 19 19
26 27 18 12 9 9 12 16 12 8 10 8 5 4 7 4 6 5 6 7 9 11 13 17 17 20 25 26 30 31 32 33 31 26 21 16 17 18 17 16 13 13 15 15 15 17 20 23 23
20 20 19 19 8 10 22 19 21 15 14 10 12 5 8 7 9 8 6 6 6 8 10 13 15 16 18 23 25 24 21 20 20 17 15 14 16 15 14 18 14 14 19 21 21 21 23 26 27
21 16 18 18 10 10 12 9 18 24 19 19 14 10 8 6 6 12 12 10 8 9 9 10 11 15 18 19 20 19 18 18 15 15 15 17 18 18 16 20 20 18 20 23 23 28 25 33 28
22 19 15 15 15 18 20 7 22 25 22 22 17 12 10 11 9 3 12 12 11 11 11 11 12 15 14 13 15 15 16 15 15 18 20 22 19 21 21 21 20 21 22 23 26 27 29 28 30
17 20 16 13 12 15 23 19 21 26 17 26 18 21 16 12 12 9 6 14 16 16 16 16 16 15 15 14 14 15 15 14 16 19 21 23 23 21 23 20 21 21 23 27 29 27 28 33 27
19 16 3 4 6 7 11 13 20 21 16 27 21 24 22 20 15 14 13 13 20 21 22 21 21 20 20 19 18 15 8 7 11 11 16 21 27 26 27 20 21 23 27 32 31 33 28 32 26
23 22 11 4 2 4 17 7 11 11 14 8 19 15 20 21 23 19 13 13 15 19 22 24 25 22 20 20 18 14 15 6 11 12 16 15 10 18 19 21 25 28 32 31 31 31 31 26 25
23 24 21 9 4 2 7 20 28 13 14 13 8 13 13 20 25 26 23 21 16 18 20 23 24 25 24 20 19 19 18 22 18 14 15 15 13 10 17 24 24 24 26 27 29 30 28 29 30
29 20 18 7 4 2 8 17 15 11 5 7 11 11 13 13 16 25 30 28 21 26 28 28 25 23 26 25 25 25 23 26 24 23 20 16 17 18 17 19 22 23 25 27 28 28 30 32 31
27 28 25 14 13 5 2 6 8 13 19 11 12 12 14 14 17 10 27 31 33 27 20 24 28 28 35 27 23 25 27 33 31 24 25 20 21 21 21 23 24 25 27 28 29 29 32 33 40
28 30 29 22 14 10 12 16 7 1 9 11 13 13 12 15 13 16 19 16 28 27 24 28 30 31 24 19 24 26 26 27 30 29 26 23 24 21 22 25 28 30 30 30 31 32 35 39 33
Wind_Direction
324 305 229 122 273 259 277 279 298 309 285 256 270 286 280 234 233 236 256 270 296 292 238 180 187 183 178 175 176 176 163 156 153 149 148 149 149 150 147 143 135 129 126 124 121 119 115 112 111
333 320 183 120 261 264 283 312 280 342 350 335 315 314 309 247 240 228 242 268 289 294 282 262 193 184 179 179 177 170 160 158 155 149 150 150 148 148 145 141 133 129 127 125 118 108 102 100 102
80 45 71 261 266 257 268 315 303 327 338 348 325 324 282 230 259 266 257 274 278 287 207 197 211 188 182 176 174 166 161 159 156 153 153 153 149 149 146 140 134 130 126 120 112 104 99 98 94
162 105 312 247 278 302 291 270 313 328 319 311 296 335 290 259 12 315 243 270 263 260 198 203 216 195 184 181 173 165 165 162 159 158 157 156 151 150 144 139 134 128 122 114 108 100 100 103 103
78 354 279 275 285 296 286 283 295 298 309 303 306 293 302 304 261 283 234 241 244 231 255 238 219 181 181 178 174 169 166 165 163 163 161 158 153 151 145 143 134 127 117 104 93 97 102 104 103
357 296 285 286 297 301 302 317 301 310 298 306 301 313 3 312 244 219 237 240 237 225 237 240 236 207 186 206 166 169 169 168 166 166 163 159 156 153 149 143 137 124 112 97 88 95 107 107 102
314 323 299 295 302 287 333 331 316 260 298 318 305 283 262 290 245 232 232 206 219 221 230 241 205 191 183 212 199 174 176 173 170 167 165 163 157 156 152 147 139 125 111 97 85 95 111 115 113
255 294 290 292 306 329 344 333 354 324 317 324 343 340 280 246 242 234 238 235 220 240 229 197 209 232 229 203 168 169 173 172 169 167 167 165 160 160 157 152 139 130 117 101 88 94 115 121 115
7 281 283 300 329 33 347 345 348 329 317 293 314 282 269 267 267 269 253 249 245 249 234 217 245 226 174 164 160 169 172 170 172 169 169 169 166 164 161 158 150 142 128 110 87 79 118 134 130
254 278 290 313 343 341 330 324 327 329 308 297 297 303 261 271 280 274 261 255 258 256 234 219 264 268 208 187 188 182 178 187 178 174 178 175 170 169 168 164 159 153 139 119 82 74 114 132 134
261 272 299 308 314 337 325 307 322 315 335 334 323 296 288 287 283 275 255 253 247 237 229 233 224 219 223 216 201 195 199 184 187 181 179 175 175 172 170 174 167 172 152 116 81 87 125 165 176
268 273 282 301 309 315 310 319 338 17 6 337 323 309 308 303 291 277 244 238 234 244 249 235 217 213 209 211 213 201 196 189 191 179 178 182 183 175 173 171 186 225 77 45 39 69 154 163 73
272 291 287 291 293 306 294 290 310 297 325 336 320 332 321 310 296 252 231 237 245 251 243 244 234 218 223 208 222 197 184 191 177 182 181 184 185 182 174 165 186 231 295 335 316 197 178 116 48
295 280 292 290 298 306 281 281 304 302 296 309 324 358 345 305 250 216 263 218 227 231 237 215 222 222 230 238 216 216 199 196 182 182 184 186 184 174 171 192 197 220 236 252 217 234 209 217 272
279 279 279 273 272 280 262 278 342 316 290 279 298 341 19 346 297 196 225 225 227 220 220 234 226 229 243 207 216 218 221 177 182 186 192 193 183 178 196 198 222 217 247 294 264 245 242 236 255
273 272 272 288 276 259 267 251 302 262 266 281 277 324 16 55 63 94 107 97 129 204 220 210 216 226 225 220 242 242 214 228 207 205 198 182 182 194 195 215 223 243 274 263 245 248 253 268 279
270 270 285 317 230 273 257 248 301 234 255 283 276 297 252 17 58 89 91 107 100 101 187 218 209 211 231 235 247 233 221 200 203 231 178 181 184 191 209 212 223 237 245 255 261 265 271 278 281
265 281 306 287 263 283 261 251 286 232 237 272 266 267 180 143 118 101 98 101 94 88 85 98 165 165 177 194 200 199 183 212 183 166 175 183 193 200 210 221 232 240 246 254 256 264 273 276 279
276 284 289 295 293 251 248 263 284 243 220 247 233 269 167 148 156 121 104 98 95 102 94 96 110 135 152 155 153 168 162 151 157 169 183 197 199 209 208 224 232 249 250 256 261 268 274 274 279
271 278 290 303 237 257 292 273 228 243 258 241 279 226 234 249 172 145 126 119 118 120 116 108 109 117 123 126 136 143 153 159 170 176 194 189 206 212 216 228 242 246 266 269 272 275 274 273 277
265 278 273 277 301 279 273 273 201 222 228 236 266 255 231 235 218 187 178 159 151 134 124 121 128 131 135 140 150 156 167 178 193 196 211 200 213 225 226 236 243 246 262 275 278 279 281 278 275
268 267 268 270 324 279 294 292 232 224 216 214 245 256 260 252 220 198 196 194 174 165 155 150 148 151 159 162 164 167 176 185 196 211 216 222 226 234 236 242 256 265 272 277 285 286 286 282 272
262 262 264 284 285 299 276 282 294 216 214 212 230 252 245 268 262 207 208 198 195 196 186 183 184 179 181 176 174 184 188 192 209 219 226 227 231 235 238 239 254 268 275 278 278 281 283 281 283
246 255 261 283 264 280 278 288 274 189 237 220 225 253 245 253 258 252 204 207 205 207 206 204 205 202 203 201 197 201 201 208 226 232 239 240 237 243 243 250 263 275 280 289 282 281 289 282 274
241 241 231 267 267 242 331 305 272 254 210 226 238 215 237 246 250 253 239 220 211 216 214 214 215 216 212 216 214 215 205 250 252 297 271 266 268 253 247 258 265 269 282 285 282 288 288 289 291
231 238 216 218 210 315 306 272 284 262 216 228 221 224 228 236 249 254 260 260 238 220 223 225 222 221 224 223 231 228 206 255 276 289 266 282 287 266 251 244 255 269 277 278 283 290 287 287 285
235 217 244 225 129 42 292 273 260 270 186 191 186 199 223 235 246 252 255 255 262 252 250 244 242 241 242 247 242 244 237 244 263 275 261 276 277 253 240 247 265 274 278 282 284 288 280 284 290
231 230 209 197 123 226 259 255 259 206 135 189 201 227 215 229 242 244 248 244 253 245 259 264 261 262 253 254 258 257 249 245 250 255 262 265 266 260 263 267 264 277 283 286 288 287 289 287 276
217 229 236 244 192 195 208 237 187 210 213 209 226 221 225 236 227 213 233 242 248 274 266 267 236 261 254 246 256 264 264 253 245 252 257 256 261 263 267 263 266 279 283 286 288 286 288 287 283
226 229 232 230 232 234 214 236 187 339 225 228 232 228 244 245 239 234 241 224 239 255 263 252 242 270 284 243 266 273 269 259 247 241 255 257 260 265 269 268 272 282 286 288 288 289 289 293 280